TimeCST,TemperatureF,Dew PointF,Humidity,Sea Level PressureIn,VisibilityMPH,Wind Direction,Wind SpeedMPH,Gust SpeedMPH,PrecipitationIn,Events,Conditions,WindDirDegrees,DateUTC
12:04 AM,57.2,55.4,94,29.84,4.0,NW,4.6,-,0.00,,Overcast,320,2012-12-10 06:04:00
12:12 AM,57.2,55.4,94,29.84,4.0,NW,8.1,-,0.00,,Overcast,310,2012-12-10 06:12:00
12:43 AM,55.4,53.6,94,29.84,6.0,NW,10.4,-,0.00,Thunderstorm,Overcast,320,2012-12-10 06:43:00
12:53 AM,55.9,53.1,90,29.83,6.0,NNW,10.4,16.1,0.00,Rain-Thunderstorm,Light Thunderstorms and Rain,330,2012-12-10 06:53:00
1:08 AM,55.4,53.6,94,29.84,6.0,NNW,10.4,-,0.00,Rain,Light Rain,330,2012-12-10 07:08:00
1:38 AM,53.6,53.6,100,29.88,4.0,WNW,12.7,19.6,0.02,Rain-Thunderstorm,Light Rain,300,2012-12-10 07:38:00
1:47 AM,53.6,51.8,94,29.90,2.5,WSW,12.7,19.6,0.09,Rain,Heavy Rain,250,2012-12-10 07:47:00
1:53 AM,53.1,51.1,93,29.84,1.2,NNW,16.1,23.0,0.19,Rain,Heavy Rain,340,2012-12-10 07:53:00
2:00 AM,51.8,50.0,94,29.85,1.8,NW,13.8,23.0,0.04,Rain-Thunderstorm,Heavy Thunderstorms and Rain,320,2012-12-10 08:00:00
2:04 AM,51.8,50.0,94,29.85,3.0,NW,10.4,-,0.04,Rain-Thunderstorm,Thunderstorms and Rain,320,2012-12-10 08:04:00
2:18 AM,51.8,50.0,94,29.86,6.0,NW,11.5,-,0.04,Rain,Light Rain,310,2012-12-10 08:18:00
2:53 AM,51.1,48.9,92,29.86,7.0,NW,8.1,-,0.04,,Overcast,310,2012-12-10 08:53:00
3:53 AM,50.0,48.0,93,29.82,8.0,NW,8.1,-,0.02,Rain,Light Rain,320,2012-12-10 09:53:00
4:53 AM,50.0,46.9,89,29.87,10.0,WNW,8.1,-,0.00,,Overcast,300,2012-12-10 10:53:00
5:29 AM,48.2,46.4,93,29.88,10.0,NW,8.1,-,0.00,,Overcast,320,2012-12-10 11:29:00
5:53 AM,48.0,44.1,86,29.91,10.0,WNW,13.8,20.7,0.00,,Overcast,300,2012-12-10 11:53:00
6:53 AM,44.1,37.9,79,29.95,10.0,WNW,13.8,19.6,N/A,,Overcast,300,2012-12-10 12:53:00
7:53 AM,42.1,33.1,70,29.99,10.0,NW,12.7,20.7,N/A,,Overcast,320,2012-12-10 13:53:00
8:28 AM,41.0,32.0,70,29.98,10.0,NNW,10.4,-,N/A,,Overcast,340,2012-12-10 14:28:00
8:53 AM,41.0,30.9,67,29.99,10.0,NW,9.2,-,N/A,,Mostly Cloudy,320,2012-12-10 14:53:00
9:53 AM,43.0,30.0,60,30.03,10.0,NW,11.5,20.7,N/A,,Clear,320,2012-12-10 15:53:00
10:53 AM,45.0,28.0,52,30.02,10.0,NW,12.7,-,N/A,,Clear,310,2012-12-10 16:53:00
11:53 AM,46.9,28.9,50,29.99,10.0,NNW,10.4,-,N/A,,Clear,330,2012-12-10 17:53:00
12:53 PM,46.9,28.9,50,29.98,10.0,NW,15.0,-,N/A,,Clear,320,2012-12-10 18:53:00
1:53 PM,46.9,30.9,54,29.97,10.0,West,10.4,-,N/A,,Clear,280,2012-12-10 19:53:00
2:53 PM,46.9,28.9,50,29.99,10.0,WNW,11.5,-,N/A,,Clear,300,2012-12-10 20:53:00
3:53 PM,46.0,28.9,51,30.00,10.0,WNW,9.2,-,N/A,,Clear,290,2012-12-10 21:53:00
4:53 PM,43.0,30.0,60,30.02,10.0,WNW,5.8,-,N/A,,Clear,290,2012-12-10 22:53:00
5:53 PM,39.9,30.0,68,30.03,10.0,WNW,3.5,-,N/A,,Clear,290,2012-12-10 23:53:00
6:53 PM,35.1,30.9,85,30.04,10.0,Calm,Calm,-,N/A,,Clear,0,2012-12-11 00:53:00
7:53 PM,33.1,30.0,89,30.06,10.0,Calm,Calm,-,N/A,,Clear,0,2012-12-11 01:53:00
8:53 PM,32.0,28.9,88,30.07,10.0,Calm,Calm,-,N/A,,Clear,0,2012-12-11 02:53:00
9:53 PM,33.1,28.0,82,30.09,10.0,NNW,5.8,-,N/A,,Clear,330,2012-12-11 03:53:00
10:53 PM,30.9,27.0,85,30.12,10.0,NW,5.8,-,N/A,,Clear,320,2012-12-11 04:53:00
11:53 PM,30.9,25.0,79,30.11,10.0,Calm,Calm,-,N/A,,Clear,0,2012-12-11 05:53:00